RYR21ER LGAV-EGKK

Flight info

Callsign RYR21ER
Flight time N/A
Altitude 34000
Route KOR UL53 OLGAT DCT AIOSA/N0451F360 DCT IXONA DCT ROTAR DCT BORMI DCT RESIA DCT ELMUR DCT RIPUS DCT DITON DCT HOC DCT LUL DCT RLP DCT ROTSI DCT KOTUN DCT NINAL DCT KESAX DCT KUNAV
Aircraft B738/M-SDE2E3FGHIRWXY/LB1

Departure

Time 2026-05-04 12:11
Airport Athens Eleftherios Venizelos International Airport (LGAV)

Arrival

Time N/A
Airport London Gatwick Airport (EGKK)
Time Latitude Longitude Altitude Speed Heading
2026-05-04 11:38 37.93745 23.94983 290 ft 0 kts 310°
2026-05-04 11:59 37.93733 23.95001 293 ft 3 kts 307°
2026-05-04 11:59 37.93722 23.95022 296 ft 3 kts 302°
2026-05-04 11:59 37.93711 23.95044 293 ft 3 kts 296°
2026-05-04 11:59 37.93703 23.95067 293 ft 3 kts 287°
2026-05-04 12:00 37.93700 23.95085 296 ft 1 kts 279°
2026-05-04 12:00 37.93700 23.95086 296 ft 3 kts 279°
2026-05-04 12:03 37.93696 23.95069 296 ft 7 kts 248°
2026-05-04 12:03 37.93663 23.95037 291 ft 2 kts 208°
2026-05-04 12:04 37.93635 23.95016 293 ft 7 kts 220°
2026-05-04 12:04 37.93617 23.94993 292 ft 5 kts 225°
2026-05-04 12:04 37.93588 23.94956 289 ft 1 kts 224°
2026-05-04 12:04 37.93581 23.94947 289 ft 1 kts 224°
2026-05-04 12:05 37.93573 23.94938 289 ft 2 kts 223°
2026-05-04 12:05 37.93543 23.94902 291 ft 8 kts 218°
2026-05-04 12:05 37.93498 23.94860 288 ft 0 kts 214°
2026-05-04 12:05 37.93488 23.94852 288 ft 2 kts 214°
2026-05-04 12:06 37.93456 23.94827 289 ft 10 kts 210°
2026-05-04 12:06 37.93386 23.94766 288 ft 15 kts 216°
2026-05-04 12:06 37.93289 23.94677 286 ft 20 kts 216°
2026-05-04 12:06 37.93165 23.94596 284 ft 20 kts 187°
2026-05-04 12:07 37.93057 23.94661 284 ft 18 kts 144°
2026-05-04 12:07 37.92953 23.94611 282 ft 17 kts 214°
2026-05-04 12:07 37.92858 23.94527 284 ft 16 kts 217°
2026-05-04 12:07 37.92769 23.94441 281 ft 16 kts 217°
2026-05-04 12:08 37.92687 23.94363 283 ft 13 kts 217°
2026-05-04 12:08 37.92639 23.94317 279 ft 13 kts 217°
2026-05-04 12:08 37.92562 23.94292 278 ft 10 kts 159°
2026-05-04 12:08 37.92531 23.94333 278 ft 0 kts 126°
2026-05-04 12:09 37.92526 23.94342 281 ft 8 kts 126°
2026-05-04 12:09 37.92489 23.94424 281 ft 11 kts 96°
2026-05-04 12:10 37.92514 23.94482 278 ft 0 kts 34°
2026-05-04 12:10 37.92646 23.94601 279 ft 58 kts 37°
2026-05-04 12:10 37.93155 23.95086 286 ft 123 kts 37°
2026-05-04 12:11 37.93979 23.95871 432 ft 161 kts 39°
2026-05-04 12:11 37.94875 23.96734 1129 ft 174 kts 51°